Regional Weather Roundup
Issued by NWS

Home | Current Version | Previous Version | Text Only | Print | Product List | Glossary Off
Versions: 1 2 3 4 5 6 7 8 9 10 11 12 13 14 15 16 17 18 19 20 21 22 23 24 25 26 27 28 29 30 31 32 33 34 35 36 37 38 39 40 41 42 43 44 45 46 47 48 49 50

938
ASUS43 KOAX 241902
RWRNE

WEATHER ROUNDUP FOR NEBRASKA
NATIONAL WEATHER SERVICE OMAHA NE
100 PM CST FRI FEB 24 2017

NOTES: SATELLITE DATA IS BEING USED TO AUGMENT CLOUD COVER ABOVE
       12000 FEET.
       "FAIR" INDICATES FEW OR NO CLOUDS BELOW 12,000 FEET WITH NO
       SIGNIFICANT WEATHER AND/OR OBSTRUCTIONS TO VISIBILITY.

  * THESE STATIONS DO NOT REPORT WEATHER SUCH AS RAIN...SNOW OR FOG.

NEZ001>004-019>022-054>056-242000-
NEBRASKA PANHANDLE

CITY           SKY/WX    TMP DP  RH WIND       PRES   REMARKS
SCOTTSBLUFF    LGT SNOW  23  16  74 SE3       30.04S
ALLIANCE       CLOUDY    21  15  78 NE12      30.01F WCI   9
CHADRON        CLOUDY    22  16  78 N5        30.08S WCI  16
KIMBALL        LGT SNOW  21  18  86 NE5       29.98S WCI  15
SIDNEY         CLOUDY    23  17  78 NE10      30.00S WCI  12
$$

NEZ057>060-069>072-079>082-242000-
SOUTHWEST NEBRASKA

CITY           SKY/WX    TMP DP  RH WIND       PRES   REMARKS
NORTH PLATTE   CLOUDY    23  12  62 N16G25    30.03S WCI  10
IMPERIAL       CLOUDY    25  18  74 N20       30.02S WCI  11
LEXINGTON      CLOUDY    24  15  68 N25G32    29.99S WCI   7
MCCOOK         CLOUDY    28  19  69 N26       29.99S WCI  13
OGALLALA       CLOUDY    26  18  70 N14       30.03S WCI  15
$$

NEZ005>010-023>029-035>040-094-242000-
NORTH CENTRAL NEBRASKA

CITY           SKY/WX    TMP DP  RH WIND       PRES   REMARKS
VALENTINE      CLOUDY    21  12  68 NW15      30.06S WCI   8
AINSWORTH      CLOUDY    21  16  82 N21       30.03F WCI   5
BROKEN BOW     CLOUDY    21  14  74 N25G33    29.99R WCI   4
O`NEILL        MOSUNNY   24  16  74 N22       30.00S WCI   8
ORD            CLOUDY    23  13  65 N28G33    29.97F WCI   6
THEDFORD       CLOUDY    22  13  70 N15       30.03F WCI   9
$$

NEZ041-046>049-061>064-073>077-083>087-242000-
SOUTH CENTRAL NEBRASKA

CITY           SKY/WX    TMP DP  RH WIND       PRES   REMARKS
GRAND ISLAND   CLOUDY    22  16  78 N26       29.96R WCI   5
AURORA         LGT SNOW  23  19  86 N20G26    29.94R WCI   8
HASTINGS       CLOUDY    23  16  74 N26G36    29.96R WCI   6
HEBRON         LGT SNOW  25  21  86 N21G32    29.91R WCI  10
HOLDREGE       CLOUDY    23  16  75 N17G28    29.97S WCI   9
KEARNEY *      CLOUDY    23  12  63 N21       29.97S WCI   8
$$

NEZ011>018-030>034-042>045-242000-
NORTHEAST NEBRASKA

CITY           SKY/WX    TMP DP  RH WIND       PRES   REMARKS
NORFOLK        CLOUDY    22  14  71 N20G33    29.91F WCI   7
ALBION         CLOUDY    24  13  65 N23G31    29.94S HAZE    WCI   8
BLAIR          LGT SNOW  24  21  87 N17G29    29.81S WCI  11
FREMONT        LGT SNOW  24  20  85 NW20G32   29.87R WCI   9
TEKAMAH        CLOUDY    25  20  81 N24       29.85S HAZE    WCI   9
WAYNE          CLOUDY    23  17  77 N22       29.91S WCI   8
$$

NEZ050>053-065>068-078-088>093-242000-
SOUTHEAST NEBRASKA

CITY           SKY/WX    TMP DP  RH WIND       PRES   REMARKS
LINCOLN        LGT SNOW  26  22  84 N24G32    29.88R VSB 1   WCI  11
OMAHA EPPLEY   LGT SNOW  25  20  81 N29G38    29.81S VSB 3/4 WCI   8
BEATRICE       LGT SNOW  27  24  89 N20G28    29.87R WCI  14
FALLS CITY     FLURRIES  29  25  85 N16       29.80R WCI  17
NEBRASKA CITY  LGT SNOW  27  24  87 N15       29.81R WCI  15
PLATTSMOUTH    LGT SNOW  26  21  82 NW16G24   29.81R VSB 1   WCI  14
$$

NEZ044-045-051>053-067-242000-
OMAHA AREA

CITY           SKY/WX    TMP DP  RH WIND       PRES   REMARKS
OMAHA EPPLEY   LGT SNOW  25  20  81 N29G38    29.81S VSB 3/4 WCI   8
BLAIR          LGT SNOW  24  21  87 N17G29    29.81S WCI  11
FREMONT        LGT SNOW  24  20  85 NW20G32   29.87R WCI   9
MILLARD        SNOW      27  23  85 N15G26    29.84R VSB 1/2 WCI  15
OFFUTT AFB     LGT SNOW  25  21  86 N9G18     29.82R WCI  15
PLATTSMOUTH    LGT SNOW  26  21  82 NW16G24   29.81R VSB 1   WCI  14
WAHOO          CLOUDY    24  20  86 N29G38    29.86R WCI   7
$$




USA.gov is the U.S. government's official web portal to all federal, state and local government web resources and services.